Home > Weather > Cozumel > Past weeks

Flag for Mexico Past Weather in Cozumel, Quintana Roo, Mexico — Yesterday and Last 2 Weeks

Now
72 °F

Clear.


Feels Like: 65 °F
Forecast: 82 / 89 °F
Wind: No wind

Location: Cozumel Civ / Mil

Current Time: Jun 27, 2016 at 4:30:35 AM

Latest Report: Jun 27, 2016 at 2:44 AM


Visibility: 7 mi

Pressure: 29.99 "Hg

Humidity: 100%

Dew Point: 72 °F

Location of CozumelLocation

Past Weather in Cozumel — Graph

°F

Cozumel Temperature Yesterday

Maximum temperature yesterday: 86 °F (at 12:47 PM)
Minimum temperature yesterday: 72 °F (at 3:43 AM)
Average temperature yesterday: 78 °F

High & Low Weather Summary for the Past Weeks

 TemperatureHumidityPressure
High88 °F (Jun 12, 2:50 PM)100% (Jun 12, 10:44 PM)30.10 "Hg (Jun 12, 10:44 PM)
Low66 °F (Jun 18, 6:52 PM)66% (Jun 12, 11:40 AM)29.55 "Hg (Jun 22, 3:41 AM)
Average77 °F91%30.01 "Hg
* Reported Jun 12 3:21 AM — Jun 27 2:44 AM, Cozumel, Weather by CustomWeather, © 2016

Note: Actual official high and low records may vary slightly from our data, if they occured in-between our weather recording intervals... More about our weather records

Advertising

Cozumel Weather History for the Previous 24 Hours

Scroll right to see more
 ConditionsComfort  
Time TempWeatherWind HumidityBarometerVisibility
2:44 AM
Mon, Jun 27
72 °FClear.No wind100%29.99 "Hg7 mi
1:42 AM72 °FClear.No wind100%29.99 "Hg7 mi
12:49 AM73 °FClear.No wind100%29.99 "Hg7 mi
11:46 PM
Sun, Jun 26
75 °FClear.5 mph94%30.04 "Hg7 mi
9:46 PM75 °FClear.5 mph94%30.04 "Hg7 mi
8:40 PM77 °FPassing clouds.5 mph94%30.02 "Hg8 mi
7:42 PM79 °FScattered clouds.6 mph89%30.02 "Hg8 mi
6:47 PM81 °FScattered clouds.7 mph84%29.99 "Hg8 mi
5:40 PM82 °FScattered clouds.8 mph84%29.99 "Hg8 mi
4:43 PM84 °FScattered clouds.14 mph74%29.99 "Hg8 mi
1:46 PM86 °FScattered clouds.9 mph66%30.03 "Hg8 mi
12:47 PM86 °FScattered clouds.7 mph66%30.03 "Hg8 mi
11:44 AM84 °FScattered clouds.13 mph74%30.04 "Hg8 mi
10:45 AM84 °FScattered clouds.8 mph74%30.04 "Hg8 mi
9:44 AM82 °FScattered clouds.12 mph79%30.06 "Hg8 mi
8:40 AM81 °FScattered clouds.12 mph84%30.02 "Hg8 mi
7:45 AM77 °FScattered clouds.5 mph94%30.01 "Hg8 mi
6:47 AM73 °FPassing clouds.3 mph100%29.98 "Hg7 mi
5:40 AM73 °FPassing clouds.No wind100%29.99 "Hg7 mi
4:41 AM72 °FPassing clouds.No wind100%29.99 "Hg7 mi
Weather by CustomWeather, © 2016

See weather overviewHow to use our weather pages